Location: �quirre
(50.4736°N, 2.2351°E)
Time: 15:56:04
(UTC+00:00)

COBE Rocket - Pass Details

Date: 07 August 2020
Orbit: 681 x 781 km, 97.1° (Epoch: 18 September)

Event Time Altitude Azimuth Distance (km) Brightness Sun altitude
Exits shadow 01:47:32 21° 154° (SSE) 1,519 5.2 -18.9°
Maximum altitude 01:50:37 70° 74° (ENE) 731 4.0 -18.7°
Drops below altitude 10° 01:55:15 10° 351° (N) 2,136 7.0 -18.3°
Sets 01:57:30 0° 350° (N) 3,056 7.9 -18.1°
